STARLINK-36638, 67594

Orbit data source: Space-Track

STARLINK-36638, 67594 is a payload satellite owned by SpaceX/Seattle (US) in SSO that was launched on Thu, 29 Jan 2026 UTC via an FALCON 9 launch vehicle from the Air Force Western Test Range (AFWTR). Payload-class satellites include a variety of spacecraft equipped with specific instruments for various scientific and technological missions. These include communications satellites like Starlink; space stations such as the ISS; scientific satellites like the Hubble; Earth observation satellites from companies like Planet Labs, Umbra, and HawkEye 360; GPS; miniature CubeSats for education and research; and military/defense satellites.

Loading next visibility...
Identifier
67594, 2026-018F
Orbit
SSO
Country
Flag of USUS
Related business
Manufacturer
SpaceX/Seattle
Mission
Operational Commercial Communications
Bus & Motor
STARLINK V2MO, Unknown motor
Mass
575 kg wet, ~530 kg dry
Launch date (UTC)
2026-01-29 (5 months ago)
Launch vehicle
FALCON 9
Launch site
Air Force Western Test Range (AFWTR)
Object type
Payload
Rocket body
Debris
Shape & HBR
Box + 2 Pan, 17.7 m
Radar Cross Section
36.964 m², Large (>1 m²)

Expand to show TLE details & history
Last TLE update: 1 day ago

TLE from 1 day ago
0 STARLINK-36638
1 67594U 26018F   26170.76155899  .00017712  00000-0  54951-3 0  9999
2 67594  97.2830 235.4740 0000506 174.6187 185.5062 15.33455482 22979
Epoch: 2026-06-19T18:16Z
TLE epoch observation values (Epoch: 2026-06-19T18:16:38.696Z)
Latitude
0.00003°
Longitude
53.32687°
Altitude
468.969 km
Speed
7.632 km/s
True Right ascension
15h 41m 53s
True Declination
0° 00' 00"
Sunlit
Object was in full shadow at epoch
Visualization orbit readout
Latitude
Unknown
Longitude
Unknown
Altitude
Unknown
Speed
Unknown
Apparent Right ascension
Unknown
Apparent Declination
Unknown
Sunlit
N/A
Visualization observer readout
Local Sidereal Time
07:17:44
Azimuth
Unknown
Elevation
Unknown
Doppler factor
Unknown
Orbital elements
Apogee altitude
462.801 km
Perigee altitude
462.109 km
Semi-major axis
6,840.592 km
Eccentricity
0.00005
Inclination
97.283°
RAAN
235.474°
Arg. of periapsis
174.6187°
True anomaly
185.50564°
Mean anomaly
185.5062°
Eccentric anomaly
185.50592°
Mean motion
3.83621 °/min
Orbital period
93.84 mins
BSTAR
0.00054951
Loading maneuver chart data...
Computing Atmospheric mass density...
Loading historical data...
Loading historical data...
Loading historical data...
Loading historical data...
Loading historical data...
Loading historical data...
Loading historical data...

Documentation

Showing up to 5 results
|